owner,sensor,date,latitude,longitude,vertical_datum,mass_concentration_of_oxygen_in_sea_water,qcFlag 
DISL,ioos:station:DISL:KATA:1,2013-02-01T00:00:00Z,30.2583,-88.2131,3.809,8.2,1111122 
DISL,ioos:station:DISL:KATA:1,2013-02-01T00:30:00Z,30.2583,-88.2131,3.796,8.1,1111122 
DISL,ioos:station:DISL:KATA:1,2013-02-01T01:00:00Z,30.2583,-88.2131,3.794,8.53,1111122 
DISL,ioos:station:DISL:KATA:1,2013-02-01T01:30:00Z,30.2583,-88.2131,3.792,8.41,1111122 
DISL,ioos:station:DISL:KATA:1,2013-02-01T02:00:00Z,30.2583,-88.2131,3.779,8.35,1111122 
DISL,ioos:station:DISL:KATA:1,2013-02-01T02:30:00Z,30.2583,-88.2131,3.774,8.46,1111122 
DISL,ioos:station:DISL:KATA:1,2013-02-01T03:00:00Z,30.2583,-88.2131,3.778,8.0,1111122 
DISL,ioos:station:DISL:KATA:1,2013-02-01T03:30:00Z,30.2583,-88.2131,3.774,7.63,1111122 
DISL,ioos:station:DISL:KATA:1,2013-02-01T04:00:00Z,30.2583,-88.2131,3.766,7.61,1111122 
DISL,ioos:station:DISL:KATA:1,2013-02-01T04:30:00Z,30.2583,-88.2131,3.772,7.63,1111122 
DISL,ioos:station:DISL:KATA:1,2013-02-01T05:00:00Z,30.2583,-88.2131,3.796,7.75,1111122 
DISL,ioos:station:DISL:KATA:1,2013-02-01T05:30:00Z,30.2583,-88.2131,3.817,7.67,1111122 
DISL,ioos:station:DISL:KATA:1,2013-02-01T06:00:00Z,30.2583,-88.2131,3.832,7.5,1111122 
DISL,ioos:station:DISL:KATA:1,2013-02-01T06:30:00Z,30.2583,-88.2131,3.9,7.25,1111122 
DISL,ioos:station:DISL:KATA:1,2013-02-01T07:00:00Z,30.2583,-88.2131,3.823,7.0,1111122 
DISL,ioos:station:DISL:KATA:1,2013-02-01T07:30:00Z,30.2583,-88.2131,3.796,6.52,1111122 
DISL,ioos:station:DISL:KATA:1,2013-02-01T08:00:00Z,30.2583,-88.2131,3.776,6.26,1111122 
DISL,ioos:station:DISL:KATA:1,2013-02-01T08:30:00Z,30.2583,-88.2131,3.733,6.11,1111122 
DISL,ioos:station:DISL:KATA:1,2013-02-01T09:00:00Z,30.2583,-88.2131,3.726,6.0,1111122 
DISL,ioos:station:DISL:KATA:1,2013-02-01T09:30:00Z,30.2583,-88.2131,3.699,5.9,1111122 
DISL,ioos:station:DISL:KATA:1,2013-02-01T10:00:00Z,30.2583,-88.2131,3.674,5.87,1111122 
DISL,ioos:station:DISL:KATA:1,2013-02-01T10:30:00Z,30.2583,-88.2131,3.666,5.86,1111122 
DISL,ioos:station:DISL:KATA:1,2013-02-01T11:00:00Z,30.2583,-88.2131,3.652,6.44,1111122 
DISL,ioos:station:DISL:KATA:1,2013-02-01T11:30:00Z,30.2583,-88.2131,3.65,7.77,1111122 
DISL,ioos:station:DISL:KATA:1,2013-02-01T12:00:00Z,30.2583,-88.2131,3.654,7.92,1111122 
DISL,ioos:station:DISL:KATA:1,2013-02-01T12:30:00Z,30.2583,-88.2131,3.651,8.09,1111122 
DISL,ioos:station:DISL:KATA:1,2013-02-01T13:00:00Z,30.2583,-88.2131,3.66,8.03,1111122 
DISL,ioos:station:DISL:KATA:1,2013-02-01T13:30:00Z,30.2583,-88.2131,3.669,8.1,1111122 
DISL,ioos:station:DISL:KATA:1,2013-02-01T14:00:00Z,30.2583,-88.2131,3.661,6.87,1111122 
DISL,ioos:station:DISL:KATA:1,2013-02-01T14:30:00Z,30.2583,-88.2131,3.67,6.71,1111122 
DISL,ioos:station:DISL:KATA:1,2013-02-01T15:00:00Z,30.2583,-88.2131,3.672,6.57,1111122 
DISL,ioos:station:DISL:KATA:1,2013-02-01T15:30:00Z,30.2583,-88.2131,3.671,7.46,1111122 
DISL,ioos:station:DISL:KATA:1,2013-02-01T16:00:00Z,30.2583,-88.2131,3.658,6.92,1111122 
DISL,ioos:station:DISL:KATA:1,2013-02-01T16:30:00Z,30.2583,-88.2131,3.647,7.6,1111122 
DISL,ioos:station:DISL:KATA:1,2013-02-01T17:00:00Z,30.2583,-88.2131,3.647,8.42,1111122 
DISL,ioos:station:DISL:KATA:1,2013-02-01T17:30:00Z,30.2583,-88.2131,3.664,8.58,1111122 
DISL,ioos:station:DISL:KATA:1,2013-02-01T18:00:00Z,30.2583,-88.2131,3.693,7.89,1111122 
DISL,ioos:station:DISL:KATA:1,2013-02-01T18:30:00Z,30.2583,-88.2131,3.737,6.17,1111122 
DISL,ioos:station:DISL:KATA:1,2013-02-01T19:00:00Z,30.2583,-88.2131,3.786,5.65,1111122 
DISL,ioos:station:DISL:KATA:1,2013-02-01T19:30:00Z,30.2583,-88.2131,3.824,5.9,1111122 
DISL,ioos:station:DISL:KATA:1,2013-02-01T20:00:00Z,30.2583,-88.2131,3.864,6.34,1111122 
DISL,ioos:station:DISL:KATA:1,2013-02-01T20:30:00Z,30.2583,-88.2131,3.871,7.39,1111122 
DISL,ioos:station:DISL:KATA:1,2013-02-01T21:00:00Z,30.2583,-88.2131,3.858,6.31,1111122 
DISL,ioos:station:DISL:KATA:1,2013-02-01T21:30:00Z,30.2583,-88.2131,3.844,6.26,1111122 
DISL,ioos:station:DISL:KATA:1,2013-02-01T22:00:00Z,30.2583,-88.2131,3.814,6.21,1111122 
DISL,ioos:station:DISL:KATA:1,2013-02-01T22:30:00Z,30.2583,-88.2131,3.808,6.49,1111122 
DISL,ioos:station:DISL:KATA:1,2013-02-01T23:00:00Z,30.2583,-88.2131,3.798,6.28,1111122 
DISL,ioos:station:DISL:KATA:1,2013-02-01T23:30:00Z,30.2583,-88.2131,3.783,6.36,1111122 
DISL,ioos:station:DISL:KATA:1,2013-02-02T00:00:00Z,30.2583,-88.2131,3.772,6.58,1111122 
DISL,ioos:station:DISL:KATA:1,2013-02-02T00:30:00Z,30.2583,-88.2131,3.764,7.11,1111122 
DISL,ioos:station:DISL:KATA:1,2013-02-02T01:00:00Z,30.2583,-88.2131,3.739,7.06,1111122 
DISL,ioos:station:DISL:KATA:1,2013-02-02T01:30:00Z,30.2583,-88.2131,3.717,6.85,1111122 
DISL,ioos:station:DISL:KATA:1,2013-02-02T02:00:00Z,30.2583,-88.2131,3.708,7.14,1111122 
DISL,ioos:station:DISL:KATA:1,2013-02-02T02:30:00Z,30.2583,-88.2131,3.699,7.82,1111122 
DISL,ioos:station:DISL:KATA:1,2013-02-02T03:00:00Z,30.2583,-88.2131,3.68,5.76,1111122 
DISL,ioos:station:DISL:KATA:1,2013-02-02T03:30:00Z,30.2583,-88.2131,3.679,7.15,1111122 
DISL,ioos:station:DISL:KATA:1,2013-02-02T04:00:00Z,30.2583,-88.2131,3.664,7.05,1111122 
DISL,ioos:station:DISL:KATA:1,2013-02-02T04:30:00Z,30.2583,-88.2131,3.655,7.13,1111122 
DISL,ioos:station:DISL:KATA:1,2013-02-02T05:00:00Z,30.2583,-88.2131,3.661,7.2,1111122 
DISL,ioos:station:DISL:KATA:1,2013-02-02T05:30:00Z,30.2583,-88.2131,3.654,7.63,1111122 
DISL,ioos:station:DISL:KATA:1,2013-02-02T06:00:00Z,30.2583,-88.2131,3.644,6.13,1111122 
DISL,ioos:station:DISL:KATA:1,2013-02-02T06:30:00Z,30.2583,-88.2131,3.636,6.2,1111122 
DISL,ioos:station:DISL:KATA:1,2013-02-02T07:00:00Z,30.2583,-88.2131,3.622,5.86,1111122 
DISL,ioos:station:DISL:KATA:1,2013-02-02T07:30:00Z,30.2583,-88.2131,3.615,5.47,1111122 
DISL,ioos:station:DISL:KATA:1,2013-02-02T08:00:00Z,30.2583,-88.2131,3.626,6.2,1111122 
DISL,ioos:station:DISL:KATA:1,2013-02-02T08:30:00Z,30.2583,-88.2131,3.637,6.73,1111122 
DISL,ioos:station:DISL:KATA:1,2013-02-02T09:00:00Z,30.2583,-88.2131,3.662,7.04,1111122 
DISL,ioos:station:DISL:KATA:1,2013-02-02T09:30:00Z,30.2583,-88.2131,3.682,7.48,1111122 
DISL,ioos:station:DISL:KATA:1,2013-02-02T10:00:00Z,30.2583,-88.2131,3.695,8.09,1111122 
DISL,ioos:station:DISL:KATA:1,2013-02-02T10:30:00Z,30.2583,-88.2131,3.703,8.34,1111122 
DISL,ioos:station:DISL:KATA:1,2013-02-02T11:00:00Z,30.2583,-88.2131,3.702,8.4,1111122 
DISL,ioos:station:DISL:KATA:1,2013-02-02T11:30:00Z,30.2583,-88.2131,3.7,8.57,1111122 
DISL,ioos:station:DISL:KATA:1,2013-02-02T12:00:00Z,30.2583,-88.2131,3.695,8.55,1111122 
DISL,ioos:station:DISL:KATA:1,2013-02-02T12:30:00Z,30.2583,-88.2131,3.695,8.38,1111122 
DISL,ioos:station:DISL:KATA:1,2013-02-02T13:00:00Z,30.2583,-88.2131,3.696,8.49,1111122 
DISL,ioos:station:DISL:KATA:1,2013-02-02T13:30:00Z,30.2583,-88.2131,3.698,8.65,1111122 
DISL,ioos:station:DISL:KATA:1,2013-02-02T14:00:00Z,30.2583,-88.2131,3.718,8.76,1111122 
DISL,ioos:station:DISL:KATA:1,2013-02-02T14:30:00Z,30.2583,-88.2131,3.733,8.82,1111122 
DISL,ioos:station:DISL:KATA:1,2013-02-02T15:00:00Z,30.2583,-88.2131,3.752,8.77,1111122 
DISL,ioos:station:DISL:KATA:1,2013-02-02T15:30:00Z,30.2583,-88.2131,3.776,8.43,1111122 
DISL,ioos:station:DISL:KATA:1,2013-02-02T16:00:00Z,30.2583,-88.2131,3.81,8.04,1111122 
DISL,ioos:station:DISL:KATA:1,2013-02-02T16:30:00Z,30.2583,-88.2131,3.838,8.14,1111122 
DISL,ioos:station:DISL:KATA:1,2013-02-02T17:00:00Z,30.2583,-88.2131,3.88,8.41,1111122 
DISL,ioos:station:DISL:KATA:1,2013-02-02T17:30:00Z,30.2583,-88.2131,3.913,8.6,1111122 
DISL,ioos:station:DISL:KATA:1,2013-02-02T18:00:00Z,30.2583,-88.2131,3.944,8.26,1111122 
DISL,ioos:station:DISL:KATA:1,2013-02-02T18:30:00Z,30.2583,-88.2131,3.967,7.57,1111122 
DISL,ioos:station:DISL:KATA:1,2013-02-02T19:00:00Z,30.2583,-88.2131,3.999,7.58,1111122 
DISL,ioos:station:DISL:KATA:1,2013-02-02T19:30:00Z,30.2583,-88.2131,4.028,7.52,1111122 
DISL,ioos:station:DISL:KATA:1,2013-02-02T20:00:00Z,30.2583,-88.2131,4.049,7.4,1111122 
DISL,ioos:station:DISL:KATA:1,2013-02-02T20:30:00Z,30.2583,-88.2131,4.057,7.28,1111122 
DISL,ioos:station:DISL:KATA:1,2013-02-02T21:00:00Z,30.2583,-88.2131,4.063,7.21,1111122 
DISL,ioos:station:DISL:KATA:1,2013-02-02T21:30:00Z,30.2583,-88.2131,4.066,7.12,1111122 
DISL,ioos:station:DISL:KATA:1,2013-02-02T22:00:00Z,30.2583,-88.2131,4.059,7.02,1111122 
DISL,ioos:station:DISL:KATA:1,2013-02-02T22:30:00Z,30.2583,-88.2131,4.046,6.96,1111122 
DISL,ioos:station:DISL:KATA:1,2013-02-02T23:00:00Z,30.2583,-88.2131,4.024,6.87,1111122 
DISL,ioos:station:DISL:KATA:1,2013-02-02T23:30:00Z,30.2583,-88.2131,4.006,6.63,1111122 
DISL,ioos:station:DISL:KATA:1,2013-02-03T00:00:00Z,30.2583,-88.2131,3.982,6.56,1111122 
DISL,ioos:station:DISL:KATA:1,2013-02-03T00:30:00Z,30.2583,-88.2131,3.951,6.49,1111122 
DISL,ioos:station:DISL:KATA:1,2013-02-03T01:00:00Z,30.2583,-88.2131,3.916,6.34,1111122 
DISL,ioos:station:DISL:KATA:1,2013-02-03T01:30:00Z,30.2583,-88.2131,3.878,6.33,1111122 
DISL,ioos:station:DISL:KATA:1,2013-02-03T02:00:00Z,30.2583,-88.2131,3.841,6.17,1111122 
DISL,ioos:station:DISL:KATA:1,2013-02-03T02:30:00Z,30.2583,-88.2131,3.81,6.14,1111122 
DISL,ioos:station:DISL:KATA:1,2013-02-03T03:00:00Z,30.2583,-88.2131,3.773,6.18,1111122 
DISL,ioos:station:DISL:KATA:1,2013-02-03T03:30:00Z,30.2583,-88.2131,3.752,6.27,1111122 
DISL,ioos:station:DISL:KATA:1,2013-02-03T04:00:00Z,30.2583,-88.2131,3.726,6.26,1111122 
DISL,ioos:station:DISL:KATA:1,2013-02-03T04:30:00Z,30.2583,-88.2131,3.704,6.13,1111122 
DISL,ioos:station:DISL:KATA:1,2013-02-03T05:00:00Z,30.2583,-88.2131,3.687,6.02,1111122 
DISL,ioos:station:DISL:KATA:1,2013-02-03T05:30:00Z,30.2583,-88.2131,3.673,6.1,1111122 
DISL,ioos:station:DISL:KATA:1,2013-02-03T06:00:00Z,30.2583,-88.2131,3.662,6.0,1111122 
DISL,ioos:station:DISL:KATA:1,2013-02-03T06:30:00Z,30.2583,-88.2131,3.656,5.86,1111122 
DISL,ioos:station:DISL:KATA:1,2013-02-03T07:00:00Z,30.2583,-88.2131,3.653,5.98,1111122 
DISL,ioos:station:DISL:KATA:1,2013-02-03T07:30:00Z,30.2583,-88.2131,3.651,5.99,1111122 
DISL,ioos:station:DISL:KATA:1,2013-02-03T08:00:00Z,30.2583,-88.2131,3.672,6.1,1111122 
DISL,ioos:station:DISL:KATA:1,2013-02-03T08:30:00Z,30.2583,-88.2131,3.656,6.06,1111122 
DISL,ioos:station:DISL:KATA:1,2013-02-03T09:00:00Z,30.2583,-88.2131,3.623,6.01,1111122 
DISL,ioos:station:DISL:KATA:1,2013-02-03T09:30:00Z,30.2583,-88.2131,3.611,5.75,1111122 
DISL,ioos:station:DISL:KATA:1,2013-02-03T10:00:00Z,30.2583,-88.2131,3.602,5.81,1111122 
DISL,ioos:station:DISL:KATA:1,2013-02-03T10:30:00Z,30.2583,-88.2131,3.59,5.79,1111122 
DISL,ioos:station:DISL:KATA:1,2013-02-03T11:00:00Z,30.2583,-88.2131,3.581,5.82,1111122 
DISL,ioos:station:DISL:KATA:1,2013-02-03T11:30:00Z,30.2583,-88.2131,3.567,5.68,1111122 
DISL,ioos:station:DISL:KATA:1,2013-02-03T12:00:00Z,30.2583,-88.2131,3.559,5.72,1111122 
DISL,ioos:station:DISL:KATA:1,2013-02-03T12:30:00Z,30.2583,-88.2131,3.562,5.65,1111122 
DISL,ioos:station:DISL:KATA:1,2013-02-03T13:00:00Z,30.2583,-88.2131,3.6,5.61,1111122 
DISL,ioos:station:DISL:KATA:1,2013-02-03T13:30:00Z,30.2583,-88.2131,3.63,5.59,1111122 
DISL,ioos:station:DISL:KATA:1,2013-02-03T14:00:00Z,30.2583,-88.2131,3.669,5.59,1111122 
DISL,ioos:station:DISL:KATA:1,2013-02-03T14:30:00Z,30.2583,-88.2131,3.707,5.67,1111122 
DISL,ioos:station:DISL:KATA:1,2013-02-03T15:00:00Z,30.2583,-88.2131,3.747,5.59,1111122 
DISL,ioos:station:DISL:KATA:1,2013-02-03T15:30:00Z,30.2583,-88.2131,3.795,5.64,1111122 
DISL,ioos:station:DISL:KATA:1,2013-02-03T16:00:00Z,30.2583,-88.2131,3.828,5.65,1111122 
DISL,ioos:station:DISL:KATA:1,2013-02-03T16:30:00Z,30.2583,-88.2131,3.857,5.73,1111122 
DISL,ioos:station:DISL:KATA:1,2013-02-03T17:00:00Z,30.2583,-88.2131,3.883,5.79,1111122 
DISL,ioos:station:DISL:KATA:1,2013-02-03T17:30:00Z,30.2583,-88.2131,3.906,6.02,1111122 
DISL,ioos:station:DISL:KATA:1,2013-02-03T18:00:00Z,30.2583,-88.2131,3.922,5.91,1111122 
DISL,ioos:station:DISL:KATA:1,2013-02-03T18:30:00Z,30.2583,-88.2131,3.951,5.87,1111122 
DISL,ioos:station:DISL:KATA:1,2013-02-03T19:00:00Z,30.2583,-88.2131,3.978,5.95,1111122 
DISL,ioos:station:DISL:KATA:1,2013-02-03T19:30:00Z,30.2583,-88.2131,4.017,6.11,1111122 
DISL,ioos:station:DISL:KATA:1,2013-02-03T20:00:00Z,30.2583,-88.2131,4.047,6.2,1111122 
DISL,ioos:station:DISL:KATA:1,2013-02-03T20:30:00Z,30.2583,-88.2131,4.066,6.19,1111122 
DISL,ioos:station:DISL:KATA:1,2013-02-03T21:00:00Z,30.2583,-88.2131,4.078,6.24,1111122 
DISL,ioos:station:DISL:KATA:1,2013-02-03T21:30:00Z,30.2583,-88.2131,4.076,6.16,1111122 
DISL,ioos:station:DISL:KATA:1,2013-02-03T22:00:00Z,30.2583,-88.2131,4.066,5.9,1111122 
DISL,ioos:station:DISL:KATA:1,2013-02-03T22:30:00Z,30.2583,-88.2131,4.051,5.62,1111122 
DISL,ioos:station:DISL:KATA:1,2013-02-03T23:00:00Z,30.2583,-88.2131,4.036,5.66,1111122 
DISL,ioos:station:DISL:KATA:1,2013-02-03T23:30:00Z,30.2583,-88.2131,4.017,5.78,1111122 
DISL,ioos:station:DISL:KATA:1,2013-02-04T00:00:00Z,30.2583,-88.2131,4.0,5.6,1111122 
DISL,ioos:station:DISL:KATA:1,2013-02-04T00:30:00Z,30.2583,-88.2131,3.984,5.67,1111122 
DISL,ioos:station:DISL:KATA:1,2013-02-04T01:00:00Z,30.2583,-88.2131,3.963,5.72,1111122 
DISL,ioos:station:DISL:KATA:1,2013-02-04T01:30:00Z,30.2583,-88.2131,3.943,6.11,1111122 
DISL,ioos:station:DISL:KATA:1,2013-02-04T02:00:00Z,30.2583,-88.2131,3.917,5.88,1111122 
DISL,ioos:station:DISL:KATA:1,2013-02-04T02:30:00Z,30.2583,-88.2131,3.882,5.61,1111122 
DISL,ioos:station:DISL:KATA:1,2013-02-04T03:00:00Z,30.2583,-88.2131,3.846,5.51,1111122 
DISL,ioos:station:DISL:KATA:1,2013-02-04T03:30:00Z,30.2583,-88.2131,3.813,5.84,1111122 
DISL,ioos:station:DISL:KATA:1,2013-02-04T04:00:00Z,30.2583,-88.2131,3.766,5.68,1111122 
DISL,ioos:station:DISL:KATA:1,2013-02-04T04:30:00Z,30.2583,-88.2131,3.738,5.88,1111122 
DISL,ioos:station:DISL:KATA:1,2013-02-04T05:00:00Z,30.2583,-88.2131,3.711,5.95,1111122 
DISL,ioos:station:DISL:KATA:1,2013-02-04T05:30:00Z,30.2583,-88.2131,3.678,5.62,1111122 
DISL,ioos:station:DISL:KATA:1,2013-02-04T06:00:00Z,30.2583,-88.2131,3.653,5.16,1111122 
DISL,ioos:station:DISL:KATA:1,2013-02-04T06:30:00Z,30.2583,-88.2131,3.636,5.42,1111122 
DISL,ioos:station:DISL:KATA:1,2013-02-04T07:00:00Z,30.2583,-88.2131,3.603,5.42,1111122 
DISL,ioos:station:DISL:KATA:1,2013-02-04T07:30:00Z,30.2583,-88.2131,3.584,4.97,1111122 
DISL,ioos:station:DISL:KATA:1,2013-02-04T08:00:00Z,30.2583,-88.2131,3.562,4.9,1111122 
DISL,ioos:station:DISL:KATA:1,2013-02-04T08:30:00Z,30.2583,-88.2131,3.549,5.47,1111122 
DISL,ioos:station:DISL:KATA:1,2013-02-04T09:00:00Z,30.2583,-88.2131,3.543,5.17,1111122 
DISL,ioos:station:DISL:KATA:1,2013-02-04T09:30:00Z,30.2583,-88.2131,3.536,5.34,1111122 
DISL,ioos:station:DISL:KATA:1,2013-02-04T10:00:00Z,30.2583,-88.2131,3.528,5.43,1111122 
DISL,ioos:station:DISL:KATA:1,2013-02-04T10:30:00Z,30.2583,-88.2131,3.529,5.25,1111122 
DISL,ioos:station:DISL:KATA:1,2013-02-04T11:00:00Z,30.2583,-88.2131,3.54,5.35,1111122 
DISL,ioos:station:DISL:KATA:1,2013-02-04T11:30:00Z,30.2583,-88.2131,3.569,5.45,1111122 
DISL,ioos:station:DISL:KATA:1,2013-02-04T12:00:00Z,30.2583,-88.2131,3.599,5.43,1111122 
DISL,ioos:station:DISL:KATA:1,2013-02-04T12:30:00Z,30.2583,-88.2131,3.638,5.34,1111122 
DISL,ioos:station:DISL:KATA:1,2013-02-04T13:00:00Z,30.2583,-88.2131,3.682,5.41,1111122 
DISL,ioos:station:DISL:KATA:1,2013-02-04T13:30:00Z,30.2583,-88.2131,3.713,5.46,1111122 
DISL,ioos:station:DISL:KATA:1,2013-02-04T14:00:00Z,30.2583,-88.2131,3.739,5.47,1111122 
DISL,ioos:station:DISL:KATA:1,2013-02-04T14:30:00Z,30.2583,-88.2131,3.762,5.48,1111122 
DISL,ioos:station:DISL:KATA:1,2013-02-04T15:00:00Z,30.2583,-88.2131,3.793,5.52,1111122 
DISL,ioos:station:DISL:KATA:1,2013-02-04T15:30:00Z,30.2583,-88.2131,3.809,5.53,1111122 
DISL,ioos:station:DISL:KATA:1,2013-02-04T16:00:00Z,30.2583,-88.2131,3.827,5.53,1111122 
DISL,ioos:station:DISL:KATA:1,2013-02-04T16:30:00Z,30.2583,-88.2131,3.86,5.55,1111122 
DISL,ioos:station:DISL:KATA:1,2013-02-04T17:00:00Z,30.2583,-88.2131,3.886,5.54,1111122 
DISL,ioos:station:DISL:KATA:1,2013-02-04T17:30:00Z,30.2583,-88.2131,3.922,5.6,1111122 
DISL,ioos:station:DISL:KATA:1,2013-02-04T18:00:00Z,30.2583,-88.2131,3.947,5.49,1111122 
DISL,ioos:station:DISL:KATA:1,2013-02-04T18:30:00Z,30.2583,-88.2131,3.974,5.46,1111122 
DISL,ioos:station:DISL:KATA:1,2013-02-04T19:00:00Z,30.2583,-88.2131,4.001,5.43,1111122 
DISL,ioos:station:DISL:KATA:1,2013-02-04T19:30:00Z,30.2583,-88.2131,4.031,5.51,1111122 
DISL,ioos:station:DISL:KATA:1,2013-02-04T20:00:00Z,30.2583,-88.2131,4.063,5.58,1111122 
DISL,ioos:station:DISL:KATA:1,2013-02-04T20:30:00Z,30.2583,-88.2131,4.084,5.65,1111122 
DISL,ioos:station:DISL:KATA:1,2013-02-04T21:00:00Z,30.2583,-88.2131,4.098,5.72,1111122 
DISL,ioos:station:DISL:KATA:1,2013-02-04T21:30:00Z,30.2583,-88.2131,4.119,5.84,1111122 
DISL,ioos:station:DISL:KATA:1,2013-02-04T22:00:00Z,30.2583,-88.2131,4.125,5.87,1111122 
DISL,ioos:station:DISL:KATA:1,2013-02-04T22:30:00Z,30.2583,-88.2131,4.121,5.97,1111122 
DISL,ioos:station:DISL:KATA:1,2013-02-04T23:00:00Z,30.2583,-88.2131,4.123,6.0,1111122 
DISL,ioos:station:DISL:KATA:1,2013-02-04T23:30:00Z,30.2583,-88.2131,4.123,6.06,1111122 
DISL,ioos:station:DISL:KATA:1,2013-02-05T00:00:00Z,30.2583,-88.2131,4.116,6.06,1111122 
DISL,ioos:station:DISL:KATA:1,2013-02-05T00:30:00Z,30.2583,-88.2131,4.101,6.04,1111122 
DISL,ioos:station:DISL:KATA:1,2013-02-05T01:00:00Z,30.2583,-88.2131,4.094,5.91,1111122 
DISL,ioos:station:DISL:KATA:1,2013-02-05T01:30:00Z,30.2583,-88.2131,4.086,6.05,1111122 
DISL,ioos:station:DISL:KATA:1,2013-02-05T02:00:00Z,30.2583,-88.2131,4.06,6.05,1111122 
DISL,ioos:station:DISL:KATA:1,2013-02-05T02:30:00Z,30.2583,-88.2131,4.041,6.03,1111122 
DISL,ioos:station:DISL:KATA:1,2013-02-05T03:00:00Z,30.2583,-88.2131,4.006,5.78,1111122 
DISL,ioos:station:DISL:KATA:1,2013-02-05T03:30:00Z,30.2583,-88.2131,3.964,6.04,1111122 
DISL,ioos:station:DISL:KATA:1,2013-02-05T04:00:00Z,30.2583,-88.2131,3.922,6.02,1111122 
DISL,ioos:station:DISL:KATA:1,2013-02-05T04:30:00Z,30.2583,-88.2131,3.875,5.96,1111122 
DISL,ioos:station:DISL:KATA:1,2013-02-05T05:00:00Z,30.2583,-88.2131,3.828,5.95,1111122 
DISL,ioos:station:DISL:KATA:1,2013-02-05T05:30:00Z,30.2583,-88.2131,3.796,5.87,1111122 
DISL,ioos:station:DISL:KATA:1,2013-02-05T06:00:00Z,30.2583,-88.2131,3.769,5.54,1111122 
DISL,ioos:station:DISL:KATA:1,2013-02-05T06:30:00Z,30.2583,-88.2131,3.727,5.32,1111122 
DISL,ioos:station:DISL:KATA:1,2013-02-05T07:00:00Z,30.2583,-88.2131,3.709,5.65,1111122 
DISL,ioos:station:DISL:KATA:1,2013-02-05T07:30:00Z,30.2583,-88.2131,3.692,5.5,1111122 
DISL,ioos:station:DISL:KATA:1,2013-02-05T08:00:00Z,30.2583,-88.2131,3.669,5.52,1111122 
DISL,ioos:station:DISL:KATA:1,2013-02-05T08:30:00Z,30.2583,-88.2131,3.652,5.44,1111122 
DISL,ioos:station:DISL:KATA:1,2013-02-05T09:00:00Z,30.2583,-88.2131,3.646,5.55,1111122 
DISL,ioos:station:DISL:KATA:1,2013-02-05T09:30:00Z,30.2583,-88.2131,3.637,5.61,1111122 
DISL,ioos:station:DISL:KATA:1,2013-02-05T10:00:00Z,30.2583,-88.2131,3.624,5.65,1111122 
DISL,ioos:station:DISL:KATA:1,2013-02-05T10:30:00Z,30.2583,-88.2131,3.595,5.71,1111122 
DISL,ioos:station:DISL:KATA:1,2013-02-05T11:00:00Z,30.2583,-88.2131,3.576,5.74,1111122 
DISL,ioos:station:DISL:KATA:1,2013-02-05T11:30:00Z,30.2583,-88.2131,3.587,5.83,1111122 
DISL,ioos:station:DISL:KATA:1,2013-02-05T12:00:00Z,30.2583,-88.2131,3.615,5.87,1111122 
DISL,ioos:station:DISL:KATA:1,2013-02-05T12:30:00Z,30.2583,-88.2131,3.658,5.9,1111122 
DISL,ioos:station:DISL:KATA:1,2013-02-05T13:00:00Z,30.2583,-88.2131,3.686,5.8,1111122 
DISL,ioos:station:DISL:KATA:1,2013-02-05T13:30:00Z,30.2583,-88.2131,3.748,5.99,1111122 
DISL,ioos:station:DISL:KATA:1,2013-02-05T14:00:00Z,30.2583,-88.2131,3.779,6.14,1111122 
DISL,ioos:station:DISL:KATA:1,2013-02-05T14:30:00Z,30.2583,-88.2131,3.808,6.21,1111122 
DISL,ioos:station:DISL:KATA:1,2013-02-05T15:00:00Z,30.2583,-88.2131,3.849,6.25,1111122 
DISL,ioos:station:DISL:KATA:1,2013-02-05T15:30:00Z,30.2583,-88.2131,3.886,6.24,1111122 
DISL,ioos:station:DISL:KATA:1,2013-02-05T16:00:00Z,30.2583,-88.2131,3.912,6.2,1111122 
DISL,ioos:station:DISL:KATA:1,2013-02-05T16:30:00Z,30.2583,-88.2131,3.94,6.22,1111122 
DISL,ioos:station:DISL:KATA:1,2013-02-05T17:00:00Z,30.2583,-88.2131,3.961,6.37,1111122 
DISL,ioos:station:DISL:KATA:1,2013-02-05T17:30:00Z,30.2583,-88.2131,3.987,6.5,1111122 
DISL,ioos:station:DISL:KATA:1,2013-02-05T18:00:00Z,30.2583,-88.2131,4.022,6.51,1111122 
DISL,ioos:station:DISL:KATA:1,2013-02-05T18:30:00Z,30.2583,-88.2131,4.064,6.63,1111122 
DISL,ioos:station:DISL:KATA:1,2013-02-05T19:00:00Z,30.2583,-88.2131,4.101,6.67,1111122 
DISL,ioos:station:DISL:KATA:1,2013-02-05T19:30:00Z,30.2583,-88.2131,4.154,6.7,1111122 
DISL,ioos:station:DISL:KATA:1,2013-02-05T20:00:00Z,30.2583,-88.2131,4.185,6.74,1111122 
DISL,ioos:station:DISL:KATA:1,2013-02-05T20:30:00Z,30.2583,-88.2131,4.225,6.69,1111122 
DISL,ioos:station:DISL:KATA:1,2013-02-05T21:00:00Z,30.2583,-88.2131,4.251,6.75,1111122 
DISL,ioos:station:DISL:KATA:1,2013-02-05T21:30:00Z,30.2583,-88.2131,4.258,6.73,1111122 
DISL,ioos:station:DISL:KATA:1,2013-02-05T22:00:00Z,30.2583,-88.2131,4.268,6.71,1111122 
DISL,ioos:station:DISL:KATA:1,2013-02-05T22:30:00Z,30.2583,-88.2131,4.262,6.74,1111122 
DISL,ioos:station:DISL:KATA:1,2013-02-05T23:00:00Z,30.2583,-88.2131,4.275,6.71,1111122 
DISL,ioos:station:DISL:KATA:1,2013-02-05T23:30:00Z,30.2583,-88.2131,4.279,6.77,1111122 
DISL,ioos:station:DISL:KATA:1,2013-02-06T00:00:00Z,30.2583,-88.2131,4.272,6.76,1111122 
DISL,ioos:station:DISL:KATA:1,2013-02-06T00:30:00Z,30.2583,-88.2131,4.265,6.71,1111122 
DISL,ioos:station:DISL:KATA:1,2013-02-06T01:00:00Z,30.2583,-88.2131,4.257,6.53,1111122 
DISL,ioos:station:DISL:KATA:1,2013-02-06T01:30:00Z,30.2583,-88.2131,4.249,6.49,1111122 
DISL,ioos:station:DISL:KATA:1,2013-02-06T02:00:00Z,30.2583,-88.2131,4.239,6.48,1111122 
DISL,ioos:station:DISL:KATA:1,2013-02-06T02:30:00Z,30.2583,-88.2131,4.215,6.74,1111122 
DISL,ioos:station:DISL:KATA:1,2013-02-06T03:00:00Z,30.2583,-88.2131,4.185,6.66,1111122 
DISL,ioos:station:DISL:KATA:1,2013-02-06T03:30:00Z,30.2583,-88.2131,4.156,6.65,1111122 
DISL,ioos:station:DISL:KATA:1,2013-02-06T04:00:00Z,30.2583,-88.2131,4.115,6.76,1111122 
DISL,ioos:station:DISL:KATA:1,2013-02-06T04:30:00Z,30.2583,-88.2131,4.061,6.73,1111122 
DISL,ioos:station:DISL:KATA:1,2013-02-06T05:00:00Z,30.2583,-88.2131,4.011,6.66,1111122 
DISL,ioos:station:DISL:KATA:1,2013-02-06T05:30:00Z,30.2583,-88.2131,3.957,6.6,1111122 
DISL,ioos:station:DISL:KATA:1,2013-02-06T06:00:00Z,30.2583,-88.2131,3.907,6.57,1111122 
DISL,ioos:station:DISL:KATA:1,2013-02-06T06:30:00Z,30.2583,-88.2131,3.855,6.52,1111122 
DISL,ioos:station:DISL:KATA:1,2013-02-06T07:00:00Z,30.2583,-88.2131,3.804,6.47,1111122 
DISL,ioos:station:DISL:KATA:1,2013-02-06T07:30:00Z,30.2583,-88.2131,3.764,6.42,1111122 
DISL,ioos:station:DISL:KATA:1,2013-02-06T08:00:00Z,30.2583,-88.2131,3.731,6.31,1111122 
DISL,ioos:station:DISL:KATA:1,2013-02-06T08:30:00Z,30.2583,-88.2131,3.696,6.3,1111122 
DISL,ioos:station:DISL:KATA:1,2013-02-06T09:00:00Z,30.2583,-88.2131,3.674,6.25,1111122 
DISL,ioos:station:DISL:KATA:1,2013-02-06T09:30:00Z,30.2583,-88.2131,3.661,5.96,1111122 
DISL,ioos:station:DISL:KATA:1,2013-02-06T10:00:00Z,30.2583,-88.2131,3.655,5.91,1111122 
DISL,ioos:station:DISL:KATA:1,2013-02-06T10:30:00Z,30.2583,-88.2131,3.656,6.1,1111122 
DISL,ioos:station:DISL:KATA:1,2013-02-06T11:00:00Z,30.2583,-88.2131,3.661,6.1,1111122 
DISL,ioos:station:DISL:KATA:1,2013-02-06T11:30:00Z,30.2583,-88.2131,3.675,6.15,1111122 
DISL,ioos:station:DISL:KATA:1,2013-02-06T12:00:00Z,30.2583,-88.2131,3.689,6.15,1111122 
DISL,ioos:station:DISL:KATA:1,2013-02-06T12:30:00Z,30.2583,-88.2131,3.713,6.11,1111122 
DISL,ioos:station:DISL:KATA:1,2013-02-06T13:00:00Z,30.2583,-88.2131,3.744,6.18,1111122 
DISL,ioos:station:DISL:KATA:1,2013-02-06T13:30:00Z,30.2583,-88.2131,3.777,6.15,1111122 
DISL,ioos:station:DISL:KATA:1,2013-02-06T14:00:00Z,30.2583,-88.2131,3.809,6.2,1111122 
DISL,ioos:station:DISL:KATA:1,2013-02-06T14:30:00Z,30.2583,-88.2131,3.841,6.19,1111122 
DISL,ioos:station:DISL:KATA:1,2013-02-06T15:00:00Z,30.2583,-88.2131,3.875,6.26,1111122 
DISL,ioos:station:DISL:KATA:1,2013-02-06T15:30:00Z,30.2583,-88.2131,3.905,6.39,1111122 